Location: White Ridge parking lot
(35.4984°N, 106.8413°W)
Time: 16:49:43
(UTC-06:00)

Envisat - Pass Details

Date: 24 July 2019
Orbit: 764 x 766 km, 98.1° (Epoch: 21 August)

Event Time Altitude Azimuth Distance (km) Brightness Sun altitude
Rises 20:54:47 0° 217° (SW) 3,216 6.3 -7.5°
Reaches altitude 10° 20:58:47 10° 248° (WSW) 2,296 6.0 -8.2°
Maximum altitude 21:00:32 12° 269° (W) 2,180 6.3 -8.5°
Drops below altitude 10° 21:02:19 10° 290° (WNW) 2,301 7.0 -8.8°
Sets 21:06:21 0° 322° (NW) 3,233 7.8 -9.5°
